Weather History for Andrews, NC

Change the Weather History Date:

Monday, April 28, 2014

  Actual Average (KTYS) Record (KTYS)
Temperature  
Mean Temperature 66 °F 62 °F  
Max Temperature 78 °F 74 °F 90 °F (1957)
Min Temperature 55 °F 51 °F 35 °F (1928)
Degree Days  
Heating Degree Days 0 4  
Month to date heating degree days 211  
Since 1 July heating degree days 3568  
Cooling Degree Days 2 2  
Month to date cooling degree days 29  
Year to date cooling degree days 34  
Growing Degree Days 16 (Base 50)    
Moisture  
Dew Point 59 °F    
Average Humidity 77    
Maximum Humidity 100    
Minimum Humidity 50    
Precipitation  
Precipitation 0.00 in 0.14 in 2.42 in (2013)
Month to date precipitation 3.74  
Year to date precipitation 16.66  
Snow  
Snow 0.00 in 0.00 in - ()
Month to date snowfall 0.5  
Since 1 July snowfall 6.5  
Snow Depth -    
Sea Level Pressure  
Sea Level Pressure 29.89 in    
Wind  
Wind Speed 4 mph (SW)    
Max Wind Speed 15 mph    
Max Gust Speed 24 mph    
Visibility 8 miles    
Events Fog , Rain    
T = Trace of Precipitation, MM = Missing Value Source: NWS Daily Summary

Daily Weather History Graph

Daily Weather History Graph

Search for Another Location

Airport:

Trip Planner

Search our weather history database for the weather conditions in past years. The results will help you decide how hot, cold, wet, or windy it might be!

Date:

Astronomy

Apr. 28, 2014 Rise Set
Actual Time 6:47 AM EDT 8:18 PM EDT
Civil Twilight 6:20 AM EDT 8:45 PM EDT
Nautical Twilight 5:48 AM EDT 9:18 PM EDT
Astronomical Twilight 5:14 AM EDT 9:52 PM EDT
Moon 6:22 AM EDT 7:56 PM EDT
Length of Visible Light 14h 25m
Length of Day
13h 31m
Waning Crescent, 0% of the Moon is Illuminated
Apr 28
Waning Crescent
Apr 29
New
May 6
First Quarter
May 14
Full
May 21
Last Quarter

Hourly Weather History & Observations

Time (EDT) Temp. Dew Point Humidity Pressure Visibility Wind Dir Wind Speed Gust Speed Precip Events Conditions
12:15 AM 62.2 °F 61.2 °F 96% 29.98 in 7.0 mi ESE 5.8 mph - N/A   Overcast
12:35 AM 62.1 °F 61.2 °F 97% 29.98 in 7.0 mi Calm Calm - N/A   Overcast
12:55 AM 61.7 °F 60.1 °F 94% 29.99 in 10.0 mi NW 6.9 mph - N/A   Overcast
1:15 AM 61.7 °F 60.6 °F 96% 29.98 in 7.0 mi Calm Calm - N/A   Light Drizzle
1:35 AM 61.0 °F 60.1 °F 97% 29.98 in 7.0 mi NNE 3.5 mph - N/A   Overcast
1:55 AM 61.3 °F 60.1 °F 96% 29.96 in 10.0 mi North 3.5 mph - N/A   Overcast
2:15 AM 60.6 °F 59.7 °F 97% 29.95 in 7.0 mi Calm Calm - N/A   Mostly Cloudy
2:35 AM 59.9 °F 59.5 °F 99% 29.94 in 5.0 mi Calm Calm - N/A   Scattered Clouds
2:55 AM 59.2 °F 58.8 °F 99% 29.93 in 5.0 mi Calm Calm - N/A   Mostly Cloudy
3:15 AM 59.2 °F 58.5 °F 97% 29.93 in 7.0 mi Calm Calm - N/A   Mostly Cloudy
3:35 AM 59.2 °F 58.8 °F 99% 29.93 in 5.0 mi Calm Calm - N/A   Mostly Cloudy
3:55 AM 58.3 °F 58.1 °F 99% 29.93 in 4.0 mi Calm Calm - N/A   Mostly Cloudy
4:15 AM 57.0 °F 56.8 °F 99% 29.92 in 1.2 mi Calm Calm - N/A   Mostly Cloudy
4:35 AM 57.4 °F 57.2 °F 99% 29.92 in 3.0 mi Calm Calm - N/A   Scattered Clouds
4:55 AM 55.9 °F 55.8 °F 99% 29.91 in 0.5 mi Calm Calm - N/A Fog Fog
5:15 AM 56.5 °F 56.5 °F 100% 29.91 in 0.5 mi West 3.5 mph - N/A Fog Fog
5:35 AM 57.2 °F 57.2 °F 100% 29.92 in 0.2 mi Calm Calm - N/A Fog Fog
6:15 AM 57.4 °F 57.4 °F 100% 29.91 in 0.2 mi ESE 3.5 mph - N/A Fog Fog
6:35 AM 57.7 °F 57.7 °F 100% 29.90 in 2.5 mi NNE 4.6 mph - N/A   Mostly Cloudy
6:55 AM 58.1 °F 57.9 °F 99% 29.90 in 7.0 mi WNW 4.6 mph - N/A   Mostly Cloudy
7:15 AM 57.6 °F 57.4 °F 99% 29.91 in 2.5 mi Calm Calm - N/A   Scattered Clouds
7:35 AM 57.9 °F 57.7 °F 99% 29.91 in 4.0 mi Calm Calm - N/A   Scattered Clouds
7:55 AM 58.5 °F 58.3 °F 99% 29.92 in 4.0 mi Calm Calm - N/A   Scattered Clouds
8:15 AM 59.7 °F 59.4 °F 99% 29.93 in 5.0 mi Calm Calm - N/A   Mostly Cloudy
8:35 AM 60.3 °F 59.5 °F 97% 29.93 in 5.0 mi Calm Calm - N/A   Overcast
8:55 AM 61.5 °F 60.1 °F 95% 29.93 in 7.0 mi Calm Calm - N/A   Overcast
9:15 AM 62.8 °F 61.2 °F 94% 29.91 in 7.0 mi Calm Calm - N/A   Overcast
9:35 AM 64.2 °F 61.7 °F 91% 29.92 in 10.0 mi Calm Calm - N/A   Overcast
9:55 AM 66.4 °F 62.2 °F 86% 29.93 in 10.0 mi WNW 3.5 mph - N/A   Overcast
10:15 AM 69.4 °F 60.6 °F 73% 29.93 in 10.0 mi West 5.8 mph - N/A   Overcast
10:55 AM 71.1 °F 58.3 °F 64% 29.93 in 10.0 mi SW 8.1 mph - N/A   Overcast
11:15 AM 72.0 °F 58.6 °F 63% 29.93 in 10.0 mi WSW 5.8 mph - N/A   Overcast
11:35 AM 71.8 °F 58.6 °F 63% 29.94 in 10.0 mi West 8.1 mph - N/A   Overcast
12:15 PM 73.0 °F 57.6 °F 58% 29.92 in 10.0 mi Calm Calm - N/A   Overcast
12:35 PM 74.3 °F 58.1 °F 57% 29.89 in 10.0 mi ESE 3.5 mph - N/A   Mostly Cloudy
12:55 PM 74.7 °F 58.3 °F 57% 29.89 in 10.0 mi Calm Calm - N/A   Scattered Clouds
1:15 PM 76.1 °F 58.8 °F 55% 29.89 in 10.0 mi Calm Calm - N/A   Scattered Clouds
1:35 PM 77.4 °F 59.0 °F 53% 29.89 in 10.0 mi WSW 10.4 mph 17.3 mph N/A   Scattered Clouds
1:55 PM 77.5 °F 58.6 °F 52% 29.89 in 10.0 mi SSW 5.8 mph - N/A   Scattered Clouds
2:15 PM 78.1 °F 59.0 °F 52% 29.89 in 10.0 mi WSW 12.7 mph 18.4 mph N/A   Scattered Clouds
2:55 PM 77.4 °F 58.8 °F 53% 29.90 in 10.0 mi SW 10.4 mph 19.6 mph N/A   Mostly Cloudy
3:15 PM 77.0 °F 58.6 °F 53% 29.88 in 10.0 mi SSW 12.7 mph 21.9 mph N/A   Scattered Clouds
3:35 PM 77.0 °F 57.9 °F 52% 29.87 in 10.0 mi SW 10.4 mph 21.9 mph N/A   Mostly Cloudy
3:55 PM 77.4 °F 58.3 °F 52% 29.87 in 10.0 mi WSW 15.0 mph 20.7 mph N/A   Mostly Cloudy
4:15 PM 76.8 °F 57.7 °F 52% 29.88 in 10.0 mi WSW 13.8 mph 23.0 mph N/A   Mostly Cloudy
4:35 PM 76.1 °F 58.3 °F 54% 29.86 in 10.0 mi SW 4.6 mph - N/A   Mostly Cloudy
5:15 PM 78.6 °F 58.8 °F 50% 29.83 in 10.0 mi WSW 8.1 mph - N/A   Clear
5:35 PM 76.6 °F 57.9 °F 52% 29.83 in 10.0 mi SW 9.2 mph - N/A   Scattered Clouds
5:55 PM 76.1 °F 58.1 °F 54% 29.82 in 10.0 mi SW 9.2 mph - N/A   Scattered Clouds
6:15 PM 76.1 °F 58.3 °F 54% 29.83 in 10.0 mi West 11.5 mph - N/A   Scattered Clouds
6:35 PM 75.0 °F 58.1 °F 56% 29.83 in 10.0 mi WSW 5.8 mph - N/A   Mostly Cloudy
6:55 PM 74.5 °F 58.5 °F 57% 29.82 in 10.0 mi SW 6.9 mph - N/A   Overcast
7:15 PM 73.6 °F 59.0 °F 60% 29.83 in 10.0 mi SSW 3.5 mph - N/A   Overcast
7:35 PM 74.1 °F 59.0 °F 59% 29.82 in 10.0 mi South 5.8 mph - N/A   Overcast
7:55 PM 73.4 °F 58.8 °F 60% 29.81 in 10.0 mi South 5.8 mph - N/A   Overcast
8:15 PM 73.2 °F 59.0 °F 61% 29.81 in 10.0 mi Calm Calm - N/A   Overcast
8:35 PM 72.5 °F 59.4 °F 63% 29.83 in 10.0 mi South 5.8 mph - N/A   Overcast
8:55 PM 72.7 °F 59.9 °F 64% 29.84 in 10.0 mi West 5.8 mph - N/A   Overcast
9:15 PM 72.9 °F 59.9 °F 64% 29.84 in 10.0 mi West 4.6 mph - N/A   Overcast
9:35 PM 72.1 °F 60.6 °F 67% 29.86 in 10.0 mi Calm Calm - N/A   Overcast
9:55 PM 71.1 °F 61.5 °F 72% 29.86 in 10.0 mi Calm Calm - N/A Rain Light Rain
10:15 PM 68.4 °F 62.8 °F 82% 29.83 in 10.0 mi Calm Calm - N/A Rain Light Rain
10:55 PM 69.8 °F 61.7 °F 75% 29.83 in 10.0 mi South 4.6 mph - N/A   Scattered Clouds
11:15 PM 69.6 °F 60.6 °F 73% 29.82 in 10.0 mi WSW 5.8 mph - N/A   Scattered Clouds
11:35 PM 70.2 °F 61.7 °F 74% 29.79 in 10.0 mi SSW 13.8 mph 24.2 mph N/A   Scattered Clouds
11:55 PM 71.4 °F 62.4 °F 73% 29.78 in 10.0 mi SW 9.2 mph 19.6 mph N/A   Scattered Clouds